Location: Newark
(54.6833°N, 25.2833°E)
Time: 21:53:28
(UTC+00:00)

Altair - Pass Details

Date: 19 November 2019
Orbit: 1502 x 1682 km, 47.2° (Epoch: 05 December)

Event Time Altitude Azimuth Distance (km) Brightness Sun altitude
Rises 23:35:13 0° 188° (S) 4,647 - -50.9°
Reaches altitude 10° 23:39:28 10° 171° (S) 3,654 - -50.5°
Maximum altitude 23:45:06 18° 133° (SE) 3,051 - -50.0°
Exits shadow 23:48:45 14° 105° (ESE) 3,324 9.4 -49.7°
Drops below altitude 10° 23:50:43 10° 94° (E) 3,661 9.7 -49.5°
Sets 23:54:57 0° 77° (ENE) 4,659 10.5 -49.1°
